Regional Weather Roundup
Issued by NWS

Home | Current Version | Previous Version | Text Only | Print | Product List | Glossary Off
Versions: 1 2 3 4 5 6 7 8 9 10 11 12 13 14 15 16 17 18 19 20 21 22 23 24 25 26 27 28 29 30 31 32 33 34 35 36 37 38 39 40 41 42 43 44 45 46 47 48 49 50

000
ASUS43 KDMX 170006
RWRIA

WEATHER ROUNDUP FOR IOWA
NATIONAL WEATHER SERVICE DES MOINES IA
600 PM CST MON JAN 16 2017

NOTE: "FAIR" INDICATES FEW OR NO CLOUDS BELOW 12,000 FEET WITH NO
SIGNIFICANT WEATHER AND/OR OBSTRUCTIONS TO VISIBILITY.

* - THESE STATIONS ARE NOT NWS STATIONS...THUS NOT UNDER NWS
QUALITY CONTROL.  THEY ALSO DO NOT REPORT WEATHER SUCH
AS PRECIPITATION OR FOG.

IAZ001>003-012>014-020>022-031>034-043>046-170100-
   NORTHWEST IOWA

CITY           SKY/WX    TMP DP  RH WIND       PRES   REMARKS
CARROLL *      CLOUDY    34  34 100 NE8       29.90S FOG     WCI  27
CHEROKEE *     MIX PCPN  32  32 100 N6        29.94S WCI  26
DENISON *      CLOUDY    32  32 100 NE6G14    29.89S FOG     WCI  26
LE MARS *      CLOUDY    32  32 100 N6        29.97R WCI  26
ORANGE CITY *  MIX PCPN  32  32 100 N6        29.95R WCI  26
SHELDON *      LGT RAIN  32  32 100 NE9       29.94S WCI  24
SIOUX CITY     CLOUDY    34  32  92 N9        29.96R WCI  27
6HR MIN TEMP:  34; 6HR MAX TEMP:  34; 6HR PCP:  0.18;

SPENCER        FRZ RAIN  32  31  96 NE9       29.95R WCI  24
6HR MIN TEMP:  31; 6HR MAX TEMP:  32; 6HR PCP:  0.25;

STORM LAKE *   CLOUDY    32  32 100 NE12      29.92R WCI  23
$$

IAZ055>058-069>071-079>083-090>094-170100-
   SOUTHWEST IOWA

CITY           SKY/WX    TMP DP  RH WIND       PRES   REMARKS
ATLANTIC *     CLOUDY    34  32  93 NE7       29.89R FOG     WCI  28
AUDUBON *      CLOUDY    32  30  93 N3        29.90R FOG
CLARINDA *     FOG       34  34 100 NE7       29.89R VSB 3/4 WCI  28
COUNCIL BLFS * CLOUDY    34  34 100 N9        29.90R FOG     WCI  26
CRESTON *      FOG       32  32 100 NE9       29.87S VSB 1/4 WCI  24
HARLAN  *      CLOUDY    32  32 100 NE8       29.93R WCI  25
LAMONI         FOG       37  36  96 NE3       29.84R VSB 1/4
6HR MIN TEMP:  33; 6HR MAX TEMP:  37; 6HR PCP:  0.01;

RED OAK *      CLOUDY    34  34 100 N7        29.89R WCI  28
SHENANDOAH *   CLOUDY    34  34 100 N7        29.89R FOG     WCI  28
$$

IAZ047>049-059>061-072>074-084-170100-
   CENTRAL IOWA

CITY           SKY/WX    TMP DP  RH WIND       PRES   REMARKS
AMES           LGT RAIN  33  33 100 NE3       29.90S FOG
6HR MIN TEMP:  33; 6HR MAX TEMP:  33; 6HR PCP:  0.37;

ANKENY *       FOG       32  32 100 N5        29.91S VSB 1/4 WCI  27
BOONE *        FOG       32  32 100 NE6       29.89R VSB 1/2 WCI  26
CHARITON *     FOG       34  34 100 NE5       29.86S VSB 1/4 WCI  30
DES MOINES     DRZL/FOG  34  33  96 NE5       29.89S VSB 1/2 WCI  30
6HR MIN TEMP:  34; 6HR MAX TEMP:  34; 6HR PCP:  0.12;

GRINNELL*      FOG       33  33  99 E5        29.89S VSB 1/4 WCI  29
KNOXVILLE *    FOG       34  34 100 N5        29.86S VSB<1/4 WCI  30
MARSHALLTOWN   LGT RAIN  33  33 100 E8        29.89S FOG     WCI  26
6HR MIN TEMP:  32; 6HR MAX TEMP:  33; 6HR PCP:  0.68;

NEWTON *       FOG       34  34 100 NE6       29.88S VSB 1/4 WCI  29
PELLA *        FOG       35  34  98 CALM      29.90R VSB 1/2
PERRY *        CLOUDY    33  33 100 CALM      29.90R FOG
$$

IAZ004>006-015-016-023>025-035-036-170100-
   NORTH CENTRAL IOWA

CITY           SKY/WX    TMP DP  RH WIND       PRES   REMARKS
ALGONA *       CLOUDY    34  34 100 NE8       29.94S WCI  27
CLARION *      CLOUDY    32  32 100 NE9       29.92S FOG     WCI  24
ESTHERVILLE    FRZ RAIN  31  31 100 N12       29.94S FOG     WCI  22
6HR MIN TEMP:  29; 6HR MAX TEMP:  31; 6HR PCP:  0.19;

FORT DODGE *   CLOUDY    32  30  93 CALM      29.93S
MASON CITY     CLOUDY    32  31  96 NE12      29.94S FOG     WCI  23
6HR MIN TEMP:  31; 6HR MAX TEMP:  32; 6HR PCP:  0.21;

FOREST CITY *  MIX PCPN  32  32 100 NE9       29.94R WCI  24
WEBSTER CITY * CLOUDY    34  34 100 NE7       29.89F FOG     WCI  28
IOWA FALLS *   CLOUDY    33  32  96 NE5       29.92S FOG     WCI  29
$$

IAZ007>011-017>019-026>030-037>042-050>054-066-170100-
   NORTHEAST IOWA

CITY           SKY/WX    TMP DP  RH WIND       PRES   REMARKS
CEDAR RAPIDS   FOG       34  34 100 E9        29.90S VSB 1/2 WCI  27
6HR MIN TEMP:  32; 6HR MAX TEMP:  34; 6HR PCP:  0.28;

CHARLES CITY * CLOUDY    34  34 100 MISG      29.94S
CLINTON *      MIX PCPN  35  35 100 E13       29.95F FOG     WCI  26
DECORAH *      CLOUDY    32  32 100 E8        29.94F FOG     WCI  25
DUBUQUE        CLOUDY    33  33 100 E6        29.94F FOG     WCI  28
6HR MIN TEMP:  32; 6HR MAX TEMP:  33; 6HR PCP:  0.46;

MONTICELLO *   CLOUDY    34  34 100 E8        29.93F FOG     WCI  27
OELWEIN *      CLOUDY    34  32  93 E9        29.93S FOG     WCI  26
WATERLOO       CLOUDY    33  32  96 E7        29.92S FOG     WCI  27
6HR MIN TEMP:  32; 6HR MAX TEMP:  33; 6HR PCP:  0.31;

$$

IAZ064-065-067-068-078-170100-
   EAST CENTRAL IOWA

CITY           SKY/WX    TMP DP  RH WIND       PRES   REMARKS
DAVENPORT      CLOUDY    35  34  96 E12       29.93F FOG     WCI  27
6HR MIN TEMP:  34; 6HR MAX TEMP:  36; 6HR PCP:  0.28;

IOWA CITY      CLOUDY    37  36  96 E6        29.93F FOG     WCI  32
6HR MIN TEMP:  34; 6HR MAX TEMP:  37; 6HR PCP:  0.25;

MUSCATINE *    CLOUDY    37  36  93 SE3       29.93S FOG
QUAD CITIES    CLOUDY    37  35  92 E8        29.92F FOG     WCI  31
6HR MIN TEMP:  35; 6HR MAX TEMP:  37; 6HR PCP:  0.33;

$$

IAZ062-063-075>077-085>089-095>099-170100-
   SOUTHEAST IOWA

CITY           SKY/WX    TMP DP  RH WIND       PRES   REMARKS
BURLINGTON     CLOUDY    38  38 100 E5        29.90F FOG     WCI  34
6HR MIN TEMP:  35; 6HR MAX TEMP:  39; 6HR PCP:  0.18;

FAIRFIELD *    FOG       37  37 100 E9        29.87F VSB 1/4 WCI  31
FORT MADISON * FOG       37  37 100 E5        29.90F VSB 1/2 WCI  34
KEOKUK *       CLOUDY    39  39 100 E8        29.89S FOG     WCI  34
OSKALOOSA *    FOG       35  35  99 E7        29.88F VSB 1/4 WCI  29
CENTERVILLE *  FOG       37  36  93 CALM      29.87S VSB 3/4
OTTUMWA        FOG       36  36 100 E7        29.86F VSB 1/4 WCI  30
6HR MIN TEMP:  33; 6HR MAX TEMP:  37; 6HR PCP:  0.10;

WASHINGTON *   FOG       36  36 100 E7        29.91F VSB 1/4 WCI  30
$$

ABBREVIATIONS USED IN REMARKS
   TC - TEMPERATURES IN CELSIUS
  WCI - WIND CHILL INDEX
   HX - HEAT INDEX
  VSB - VISIBILITY
$$




USA.gov is the U.S. government's official web portal to all federal, state and local government web resources and services.